NOAA 16 DEB, 41219

Orbit data source: Space-Track

NOAA 16 DEB, 41219 is space debris in SSO originally from a launch on Thu, 21 Sep 2000 UTC launched from the Air Force Western Test Range (AFWTR). Debris objects in space refer to the collection of defunct objects orbiting the Earth. Examples of debris include non-operational satellites, rocket bodies, and fragments generated from explosions, collisions, or faulty payload assembly.

Loading next visibility...
Identifier
41219, 2000-055DY
Orbit
SSO
Country
Flag of USUS
Related business
Manufacturer
Unknown
Mission
Spacecraft
Bus & Motor
Unknown
Mass
Unknown
Launch date (UTC)
2000-09-21 (25 years ago)
Launch vehicle
Unknown
Launch site
Air Force Western Test Range (AFWTR)
Object type
Payload
Rocket body
Debris
Shape & HBR
Unknown shape, 0.1 m
Radar Cross Section
Small (<0.1 m²)

Expand to show TLE details & history
Last TLE update: 15 hours ago

TLE from 15 hours ago
0 NOAA 16 DEB
1 41219U 00055DY  25296.10870662  .00004448  00000-0  18549-2 0  9990
2 41219  98.6337 348.2897 0009044 131.4345 228.7614 14.26714290510220
Epoch: 2025-10-23T02:36Z
TLE epoch observation values (Epoch: 2025-10-23T02:36:32.251Z)
Latitude
-0.00003°
Longitude
-82.61736°
Altitude
809.946 km
Speed
7.446 km/s
True Right ascension
23h 13m 09s
True Declination
0° 00' 00"
Sunlit
Object was in full shadow at epoch
Visualization orbit readout
Latitude
Unknown
Longitude
Unknown
Altitude
Unknown
Speed
Unknown
Apparent Right ascension
Unknown
Apparent Declination
Unknown
Sunlit
N/A
Visualization observer readout
Local Sidereal Time
12:19:41
Azimuth
Unknown
Elevation
Unknown
Doppler factor
Unknown
Orbital elements
Apogee altitude
806.372 km
Perigee altitude
793.389 km
Semi-major axis
7,178.018 km
Eccentricity
0.0009
Inclination
98.6337°
RAAN
348.2897°
Arg. of periapsis
131.4345°
True anomaly
228.68353°
Mean anomaly
228.7614°
Eccentric anomaly
228.72246°
Mean motion
3.56892 °/min
Orbital period
100.87 mins
BSTAR
0.0018549
Loading maneuver chart data...
Computing Atmospheric mass density...
Loading historical data...
Loading historical data...
Loading historical data...
Loading historical data...
Loading historical data...
Loading historical data...
Loading historical data...

Documentation

Showing up to 5 results
|